Regional Weather Roundup
Issued by NWS

Home | Current Version | Previous Version | Graphics & Text | Print | Product List | Glossary Off
Versions: 1 2 3 4 5 6 7 8 9 10 11 12 13 14 15 16 17 18 19 20 21 22 23 24 25 26 27 28 29 30 31 32 33 34 35 36 37 38 39 40 41 42 43 44 45 46 47 48 49 50

000
ASUS45 KCYS 240310
RWRWY

WYOMING REGIONAL WEATHER ROUNDUP
NATIONAL WEATHER SERVICE CHEYENNE WY
900 PM MDT SAT MAY 23 2015

NOTE:  "FAIR" INDICATES FEW OR NO CLOUDS BELOW 12,000 FEET
WITH NO SIGNIFICANT WEATHER AND/OR OBSTRUCTIONS TO VISIBILITY.

WYZ001-240400-
YELLOWSTONE NATIONAL PARK

CITY           SKY/WX    TMP DP  RH WIND       PRES   REMARKS
LK YELLOWSTONE   N/A     42  34  73 VRB3      30.09S
W YELLOWSTONE  NOT AVBL

$$
WYZ002>013-054>058-071-098>099-240400-
NORTHERN WYOMING

CITY           SKY/WX    TMP DP  RH WIND       PRES   REMARKS
JACKSON        CLOUDY    46  43  87 NW6       30.01R
CODY           CLOUDY    50  43  76 N12G18    30.03S
GREYBULL       MOCLDY    58  46  64 W8        29.94R
WORLAND        RAIN      51  48  89 SW7       30.00R FOG
SHERIDAN       CLOUDY    51  47  86 SW6       30.04R
BUFFALO        CLOUDY    49  47  93 NW8       30.05R
GILLETTE       CLOUDY    53  46  77 NE12      30.01S
HULETT         CLOUDY    52  48  87 NE12      30.04F
NEWCASTLE      CLOUDY    55  43  62 MISG      29.99R

$$
WYZ014>020-022>026-101>103-240400-
CENTRAL WYOMING

CITY           SKY/WX    TMP DP  RH WIND       PRES   REMARKS
BIG PINEY      FAIR      45  40  82 N9        30.00R
PINEDALE       CLOUDY    45  39  81 NW6       30.01S
DUBOIS         LGT RAIN  39  37  93 SE10G17   30.05R WCI  32
LANDER         CLOUDY    47  41  80 NW5       30.01R
RIVERTON       CLOUDY    49  45  86 NE5       30.01S
CASPER         LGT RAIN  46  43  89 N13       30.00S
DOUGLAS        RAIN      48  46  93 S14       30.00S FOG

$$
WYZ021-027>030-104>119-240400-
SOUTHERN WYOMING

CITY           SKY/WX    TMP DP  RH WIND       PRES   REMARKS
EVANSTON       FAIR      42  37  82 SW6       30.00R
KEMMERER       FAIR      43  37  81 NW5       30.00R
FORT BRIDGER   CLEAR     48  41  76 NW8       30.02R THUNDER
ROCK SPRINGS   FAIR      46  36  68 E15       29.97R
DIXON          CLOUDY    46  37  72 SE3       30.03R
RAWLINS        LGT RAIN  44  41  89 SE7       30.01R
SARATOGA       CLOUDY    37  36  93 SE5       30.02S WCI  34
LARAMIE        LGT RAIN  41  38  89 N13G22    29.98R
CHEYENNE       CLOUDY    47  44  90 E8        29.97R
TORRINGTON     LGT RAIN  54  52  93 NE6       29.92R
PINE BLUFFS    CLOUDY    46  46 100 CALM      29.95R

$$


USA.gov is the U.S. government's official web portal to all federal, state and local government web resources and services.